Tracking 19562 objects as of 22-Mar-2019
HD Live streaming from Space Station
objects crossing your sky now

COSMOS 1998

Track COSMOS 1998 now!
10-day predictions
COSMOS 1998 is classified as:


NORAD ID: 19789
Int'l Code: 1989-009E
Perigee: 1,397.0 km
Apogee: 1,423.1 km
Inclination: 82.6 °
Period: 113.8 minutes
Semi major axis: 7781 km
RCS: 1.1762 m2 (large)
Launch date: February 10, 1989
Source: Commonwealth of Independent States (former USSR) (CIS)
Launch site: PLESETSK MISSILE AND SPACE COMPLEX (PKMTR)
aabbcc
Your satellite tracking list
Your tracking list is empty




NASA's NSSDC Master Catalog

Two Line Element Set (TLE):
1 19789U 89009E   19081.46012730  .00000008  00000-0 -15952-4 0  9997
2 19789  82.6120 218.9290 0016768 181.0338 179.0722 12.64858670389968
Source of the keplerian elements: AFSPC